sat.trackr.live / text

‹ back to catalog

STARLINK-5581

NORAD 55373 · 2023-013AU

PAYLOAD ACTIVE UNKNOWN

§ Identity

Operator
Country
US
Launch date
2023-01-26
Launch site
AFETR
Launch vehicle
Mass (kg)
RCS (m²)

Purposes: comms

External: N2YO · Heavens-Above · Gunter

§ Orbital elements

Epoch: 2026-05-24T18:18:17.097696Z

Period
94.27 min
Inclination
43.0028°
Eccentricity
0.0001984
Mean motion
15.27576848 rev/d
Perigee alt
481.7 km
Apogee alt
484.4 km
Semi-major
6,861.2 km
B*
2.3819e-5
RAAN
252.2401°
Arg perigee
279.6834°
Mean anomaly
80.3794°
Rev number
18,309

§ Raw data

STARLINK-55811 55373U 23013AU  26144.76269789  .00000393  00000+0  23819-4 0  99942 55373  43.0028 252.2401 0001984 279.6834  80.3794 15.27576848183094

JSON: /api/v1/satellites/55373 · /tle

For live sub-satellite position, see the globe view (requires WebGL).

§ Visibility from observer

Set your observer location to see the next 7 days of passes ≥ 10°. The values pass through the URL so the page stays shareable.

No JS? Fill the form by hand. The geolocation button needs JavaScript.